DW8913 Weather Reports


time (UTC)temp
C
wind
direction
speed
KPH
gust
KPH
rain 1hr
cm
rain 24hr
cm
rain mn
cm
humidity
%
barometer
mb
20260905180034 27 58 3.2 9.7 0.00 0.41 0.41 56 1009.9
20260905174501 27 213 0.0 4.8 0.00 0.41 0.41 60 1009.9
20260905173044 27 28 1.6 6.4 0.00 0.41 0.41 57 1010.0
20260905171521 27 37 1.6 8.0 0.00 0.41 0.41 59 1010.0
20260905170108 26 95 0.0 8.0 0.00 0.41 0.41 61 1010.1
20260905164526 26 210 1.6 6.4 0.00 0.41 0.41 59 1010.3
20260905163107 26 318 1.6 8.0 0.00 0.41 0.41 61 1010.4
20260905161539 25 27 1.6 12.9 0.00 0.41 0.41 63 1010.4
20260905160009 25 204 1.6 6.4 0.00 0.41 0.41 62 1010.5
20260905154551 25 28 1.6 11.3 0.00 0.41 0.41 64 1010.6
20260905153023 25 334 1.6 9.7 0.00 0.41 0.41 63 1010.6
20260905151557 25 153 3.2 12.9 0.00 0.41 0.41 62 1010.8
20260905150027 25 34 0.0 12.9 0.00 0.41 0.41 64 1010.7
20260905144555 25 5 3.2 11.3 0.00 0.41 0.41 62 1010.5
20260905143026 25 266 1.6 14.5 0.00 0.41 0.41 64 1010.2
20260905141603 24 58 1.6 12.9 0.00 0.41 0.41 68 1010.1
20260905140033 24 276 3.2 14.5 0.00 0.41 0.41 70 1010.0
20260905134503 23 66 3.2 12.9 0.00 0.41 0.41 71 1010.1
20260905133043 23 66 3.2 11.3 0.00 0.41 0.41 74 1010.0
20260905131514 23 8 1.6 11.3 0.00 0.41 0.41 77 1010.0
20260905130050 22 299 1.6 9.7 0.00 0.41 0.41 77 1010.0
20260905124518 23 195 1.6 9.7 0.00 0.41 0.41 77 1010.0
20260905123110 23 214 3.2 9.7 0.00 0.41 0.41 77 1010.1
20260905121545 22 15 1.6 6.4 0.00 0.41 0.41 79 1010.0
20260905120009 22 300 3.2 8.0 0.00 0.41 0.41 79 1010.0
20260905114550 22 25 0.0 6.4 0.00 0.41 0.41 82 1009.8
20260905113017 22 297 1.6 9.7 0.00 0.41 0.41 84 1009.7
20260905111606 22 250 1.6 9.7 0.00 0.41 0.41 85 1009.5
20260905110031 22 193 3.2 8.0 0.00 0.41 0.41 86 1009.3
20260905104613 22 31 3.2 8.0 0.00 0.41 0.41 87 1009.1
20260905103033 22 230 0.0 3.2 0.00 0.41 0.41 89 1008.9
20260905101615 22 270 0.0 4.8 0.00 0.41 0.41 91 1008.9
20260905100043 22 238 0.0 4.8 0.00 0.41 0.41 92 1008.9
20260905094511 22 212 0.0 1.6 0.00 0.41 0.41 93 1008.7
20260905093053 22 50 0.0 3.2 0.00 0.41 0.41 93 1008.7
20260905091530 22 218 0.0 4.8 0.00 0.41 0.41 93 1008.7
20260905090135 22 20 0.0 3.2 0.00 0.41 0.41 93 1008.9
20260905084532 22 41 1.6 4.8 0.00 0.41 0.41 93 1008.8
20260905083110 22 94 0.0 0.0 0.00 0.41 0.41 93 1008.7
20260905081542 22 94 0.0 1.6 0.00 0.41 0.41 93 1008.8
20260905080016 22 238 0.0 4.8 0.00 0.41 0.41 93 1008.9
20260905074551 22 23 0.0 4.8 0.00 0.61 0.41 93 1008.8
20260905073023 22 40 1.6 4.8 0.05 0.61 0.41 93 1008.9
20260905071616 22 212 0.0 0.0 0.23 0.61 0.41 93 1008.8
20260905070047 22 195 0.0 3.2 0.28 0.61 0.41 93 1008.9
20260905064511 22 281 0.0 1.6 0.28 0.64 0.41 92 1009.2
20260905063049 22 38 0.0 3.2 0.23 0.58 0.36 92 1009.6
20260905061529 23 270 0.0 3.2 0.03 0.38 0.15 91 1010.0
20260905060058 23 39 0.0 3.2 0.00 0.36 0.13 91 1009.9
20260905054531 23 323 0.0 3.2 0.03 0.36 0.13 90 1009.8
20260905053102 23 358 0.0 4.8 0.08 0.36 0.13 90 1009.9
20260905051532 23 156 1.6 4.8 0.13 0.36 0.13 90 1010.0
20260905050009 23 284 0.0 6.4 0.13 0.36 0.13 89 1010.1
20260905044549 24 58 1.6 6.4 0.10 0.33 0.10 88 1010.0
20260905043018 25 131 1.6 8.0 0.05 0.28 0.05 87 1010.1
20260905041558 25 181 0.0 1.6 0.00 0.23 0.00 86 1010.0
20260905040031 25 333 0.0 0.0 0.00 0.23 0.00 87 1009.9
20260905034617 25 340 0.0 0.0 0.00 0.23 0.23 87 1010.0
20260905033040 25 338 0.0 0.0 0.00 0.23 0.23 86 1010.1
20260905031504 25 337 0.0 0.0 0.00 0.23 0.23 86 1010.3
20260905030046 25 337 0.0 0.0 0.00 0.23 0.23 86 1010.4
20260905024513 26 337 0.0 0.0 0.00 0.23 0.23 85 1010.3
20260905023059 26 336 0.0 0.0 0.00 0.23 0.23 85 1010.3
20260905021535 26 330 0.0 0.0 0.00 0.23 0.23 84 1010.2
20260905020108 26 331 0.0 0.0 0.00 0.23 0.23 84 1010.2
20260905014533 26 241 0.0 0.0 0.00 0.23 0.23 84 1010.4
20260905013008 25 144 0.0 0.0 0.00 0.23 0.23 83 1010.4
20260905011557 26 91 0.0 0.0 0.00 0.23 0.23 83 1010.3
20260905010025 26 77 0.0 0.0 0.00 0.23 0.23 82 1010.3
20260905004642 26 35 0.0 0.0 0.00 0.23 0.23 81 1010.4
20260905003028 26 35 0.0 0.0 0.00 0.23 0.23 79 1010.1
20260905001610 26 70 0.0 1.6 0.00 0.23 0.23 78 1010.0
20260905000047 27 23 0.0 0.0 0.00 0.23 0.23 76 1009.8
20260904234504 27 44 0.0 0.0 0.00 0.23 0.23 75 1009.6
20260904233052 27 357 0.0 1.6 0.00 0.23 0.23 75 1009.8
20260904231518 27 144 0.0 1.6 0.00 0.23 0.23 74 1009.9
20260904230109 27 98 0.0 1.6 0.00 0.23 0.23 73 1010.1
20260904224530 28 169 0.0 4.8 0.00 0.23 0.23 72 1010.3
20260904223002 28 49 0.0 3.2 0.00 0.23 0.23 71 1010.4
20260904221549 28 50 0.0 4.8 0.00 0.23 0.23 69 1010.3
20260904220012 28 27 0.0 9.7 0.00 0.23 0.23 68 1010.2
20260904214610 29 155 0.0 4.8 0.00 0.23 0.23 66 1010.2
20260904213039 30 50 0.0 6.4 0.00 0.23 0.23 66 1010.2
20260904211504 30 188 1.6 6.4 0.00 0.23 0.23 65 1010.1
20260904210050 30 120 1.6 8.0 0.00 0.23 0.23 64 1010.2
20260904204521 30 50 0.0 4.8 0.00 0.23 0.23 63 1010.1
20260904203104 30 157 0.0 8.0 0.00 0.23 0.23 63 1010.1
20260904201533 30 165 1.6 9.7 0.00 0.23 0.23 62 1010.2
20260904200125 31 185 1.6 8.0 0.00 0.23 0.23 62 1010.5
20260904194602 31 183 1.6 9.7 0.00 0.23 0.23 60 1010.6
20260904193012 31 49 0.0 4.8 0.00 0.23 0.23 62 1010.7
20260904191553 30 79 1.6 8.0 0.00 0.23 0.23 63 1011.0
20260904190025 32 105 1.6 6.4 0.00 0.23 0.23 61 1011.0
20260904184615 32 49 0.0 6.4 0.00 0.23 0.23 60 1011.0
20260904183027 32 12 0.0 6.4 0.00 0.23 0.23 62 1011.2
20260904181616 31 34 0.0 4.8 0.00 0.23 0.23 62 1011.4